Location: Strawberry
(45.6646°N, 111.9596°W)
Time: 21:50:01
(UTC+00:00)

Courier 1B Rocket - Pass Details

Date: 09 October 2022
Orbit: 920 x 1202 km, 28.3° (Epoch: 03 December)

Event Time Altitude Azimuth Distance (km) Brightness Sun altitude
Rises 02:58:27 0° 245° (WSW) 3,828 8.9 -22.3°
Reaches altitude 10° 03:02:30 10° 224° (SW) 2,810 7.7 -23.0°
Maximum altitude 03:06:10 15° 191° (S) 2,392 7.0 -23.6°
Enters shadow 03:07:53 14° 174° (S) 2,457 6.9 -23.9°
Drops below altitude 10° 03:09:43 10° 158° (SSE) 2,705 - -24.2°
Sets 03:13:31 0° 136° (SE) 3,606 - -24.9°
